Hourly Data Report for September 06, 2017

All times are specified in Local Standard Time (LST). Add 1 hour to adjust for Daylight Saving Time where and when it is observed.

KOUCHIBOUGUAC CS
NEW BRUNSWICK

46°47'00.000" N
65°01'00.000" W
21.00 m
8102328
71670
AKC

Download Data

Hourly Data (September 2017)
Hourly Data Report for September 6, 2017
Temp Definition
°C
Dew Point Temp Definition
°C
Rel Hum Definition
%
Wind Dir Definition
10's deg

Wind Spd Definition
km/h
Visibility Definition
km
Stn Press Definition
kPa
Hmdx Definition


Wind Chill Definition


Weather Definition


TIME
00:00 19.6 17.5 88 19 14   100.78     LegendNANA
01:00 19.5 17.4 88 20 10   100.81     LegendNANA
02:00 19.2 17.1 88 19 14   100.81     LegendNANA
03:00 19.0 16.9 87 22 11   100.86     LegendNANA
04:00 19.0 16.5 86 20 12   100.84     LegendNANA
05:00 18.9 16.7 88 20 12   100.93     LegendNANA
06:00 18.6 16.7 89 22 10   101.04     LegendNANA
07:00 18.3 17.0 92 19 10   101.11     LegendNANA
08:00 19.3 17.1 87 19 13   101.14     LegendNANA
09:00 20.4 17.1 81 20 14   101.20 26   LegendNANA
10:00 21.0 17.1 78 20 13   101.26 26   LegendNANA
11:00 23.7 18.2 71 19 12   101.25 30   LegendNANA
12:00 22.6 18.4 77 18 12   101.26 29   LegendNANA
13:00 22.6 18.9 80 19 13   101.29 29   LegendNANA
14:00 22.0 19.1 84 19 10   101.28 29   LegendNANA
15:00 23.4 19.8 80 20 4   101.23 31   LegendNANA
16:00 22.8 19.9 84 20 7   101.22 30   LegendNANA
17:00 22.6 19.8 84 21 5   101.21 30   LegendNANA
18:00 20.3 19.6 96 20 11   101.27 28   LegendNANA
19:00 20.0 19.5 97 18 14   101.24 27   LegendNANA
20:00 19.9 19.2 96 18 9   101.26     LegendNANA
21:00 19.4 18.7 96 19 10   101.33     LegendNANA
22:00 19.0 18.4 96 19 9   101.29     LegendNANA
23:00 19.1 18.6 97 18 9   101.28     LegendNANA

Notes on Data Quality.

Legend

  • E = Estimated
  • M = Missing
  • NA = Not Available
  • ‡ = Partner data that is not subject to review by the National Climate Archives
Date modified: